Date,TemperatureHighF,TemperatureAvgF,TemperatureLowF,DewpointHighF,DewpointAvgF,DewpointLowF,HumidityHigh,HumidityAvg,HumidityLow,PressureMaxIn,PressureMinIn,WindSpeedMaxMPH,WindSpeedAvgMPH,GustSpeedMaxMPH,PrecipitationSumIn
2013-2-1,26,18,8,20,5,-3,85,55,37,30.37,29.78,9,3,25,0.00
2013-2-2,28,16,4,19,8,-1,84,70,43,30.37,29.99,9,2,19,0.00
2013-2-3,32,26,22,24,18,7,90,72,47,29.99,29.78,10,2,24,0.00
2013-2-4,36,26,20,25,14,6,90,60,41,30.05,29.85,7,2,22,0.02
2013-2-5,37,30,24,34,28,21,94,92,89,29.89,29.81,4,0,7,0.00
2013-2-6,35,27,24,24,21,20,84,79,61,30.31,30.18,5,0,11,0.00
2013-2-7,34,34,33,24,23,22,68,63,62,30.22,30.15,3,1,9,0.00
2013-2-8,37,32,31,31,26,21,84,77,60,30.01,29.77,10,2,24,0.00
2013-2-10,41,39,14,16,14,10,87,38,31,30.42,30.15,12,9,20,0.00
2013-2-11,65,46,34,45,37,30,91,75,33,30.06,29.67,14,5,30,0.00
2013-2-12,54,45,27,22,20,16,76,42,23,29.94,29.87,5,3,14,0.00
2013-2-13,41,40,37,30,24,22,76,54,47,29.71,29.63,6,4,13,0.00
2013-2-14,44,42,38,28,26,25,65,52,47,29.97,29.93,8,5,17,0.00
2013-2-15,49,48,48,28,28,28,46,45,44,29.94,29.93,2,2,7,0.00
2013-2-16,32,27,22,19,11,7,66,50,44,29.94,29.86,4,2,12,0.00
2013-2-17,25,21,18,10,5,0,64,50,38,30.22,29.86,10,4,28,0.00
2013-2-18,45,26,9,20,8,2,77,51,22,30.36,30.04,8,2,15,0.00
2013-2-19,52,39,27,35,24,14,84,58,38,30.04,29.64,15,7,28,0.02
2013-2-20,33,26,19,15,9,5,54,48,37,30.17,29.83,12,6,33,0.00
2013-2-21,33,23,19,14,9,4,76,57,41,30.33,30.13,7,3,20,0.00
2013-2-22,33,27,20,25,20,14,79,72,57,30.34,30.10,7,1,14,0.00
2013-2-23,51,36,28,35,28,24,86,74,52,30.10,29.80,6,1,11,0.00
2013-2-24,46,33,25,30,22,13,93,66,32,30.11,29.80,11,2,25,0.00
2013-2-25,42,28,20,20,16,14,83,63,35,30.21,30.11,5,1,13,0.00
2013-2-26,36,28,20,34,25,15,95,85,58,30.17,29.63,7,2,16,0.52
2013-2-27,48,38,32,39,31,28,97,78,46,29.67,29.57,12,2,26,0.01
2013-2-28,38,35,33,31,24,20,88,63,51,29.73,29.61,9,3,26,0.00